DW6561 Weather Reports


time (UTC)temp
C
wind
direction
speed
KPH
gust
KPH
rain 1hr
cm
rain 24hr
cm
rain mn
cm
humidity
%
barometer
mb
20260509034513 18 195 3.2 6.4 0.00 0.00 0.00 33 1016.8
20260509033029 20 166 0.0 6.4 0.00 0.00 0.00 25 1016.7
20260509031527 20 178 0.0 3.2 0.00 0.00 0.00 24 1016.3
20260509030028 21 24 0.0 3.2 0.00 0.00 0.00 22 1016.0
20260509024518 21 305 0.0 4.8 0.00 0.00 0.00 23 1015.8
20260509023024 22 331 0.0 3.2 0.00 0.00 0.00 25 1015.6
20260509021519 22 316 0.0 11.3 0.00 0.00 0.00 30 1015.4
20260509020022 22 332 0.0 16.1 0.00 0.00 0.00 32 1015.3
20260509014527 22 171 3.2 17.7 0.00 0.00 0.00 30 1014.8
20260509013028 23 182 4.8 24.1 0.00 0.00 0.00 29 1014.7
20260509011524 23 213 6.4 20.9 0.00 0.00 0.00 28 1014.7
20260509010013 23 211 6.4 27.4 0.00 0.00 0.00 27 1014.7
20260509004505 24 352 6.4 24.1 0.00 0.00 0.00 26 1014.5
20260509003004 24 199 4.8 14.5 0.00 0.00 0.00 24 1014.4
20260509001504 24 169 11.3 25.7 0.00 0.00 0.00 24 1014.3
20260509000006 24 195 14.5 33.8 0.00 0.00 0.00 24 1014.3
20260508234507 24 164 11.3 30.6 0.00 0.00 0.00 24 1014.3
20260508231508 24 191 14.5 25.7 0.00 0.00 0.00 21 1014.6
20260508230005 25 167 6.4 17.7 0.00 0.00 0.00 22 1014.7
20260508224520 25 134 3.2 17.7 0.00 0.00 0.00 23 1014.7
20260508223011 24 186 3.2 17.7 0.00 0.00 0.00 22 1014.7
20260508221516 24 239 3.2 16.1 0.00 0.00 0.00 24 1014.8
20260508220009 24 189 9.7 27.4 0.00 0.00 0.00 22 1014.7
20260508213007 23 220 6.4 29.0 0.00 0.00 0.00 24 1015.0
20260508211523 23 350 6.4 19.3 0.00 0.00 0.00 24 1015.0
20260508210017 23 333 8.0 22.5 0.00 0.00 0.00 25 1015.0
20260508204522 22 261 4.8 22.5 0.00 0.00 0.00 29 1015.1
20260508203007 21 303 3.2 30.6 0.00 0.00 0.00 28 1015.0
20260508201515 21 178 6.4 19.3 0.00 0.00 0.00 26 1015.0
20260508200017 22 18 8.0 22.5 0.00 0.00 0.00 25 1015.1
20260508194520 22 65 9.7 25.7 0.00 0.00 0.00 24 1015.0
20260508193025 22 149 4.8 24.1 0.00 0.00 0.00 28 1014.9
20260508191508 22 149 1.6 20.9 0.00 0.00 0.00 29 1014.9
20260508190017 22 159 4.8 17.7 0.00 0.00 0.00 31 1015.1
20260508184513 22 205 3.2 12.9 0.00 0.00 0.00 35 1015.3
20260508183020 21 123 8.0 22.5 0.00 0.00 0.00 31 1015.4
20260508181524 21 192 9.7 19.3 0.00 0.00 0.00 35 1015.4
20260508180007 19 270 6.4 19.3 0.00 0.00 0.00 43 1015.5
20260508174514 18 150 6.4 19.3 0.00 0.00 0.00 47 1015.8
20260508173026 17 126 6.4 19.3 0.00 0.00 0.00 51 1015.7
20260508171531 17 153 9.7 24.1 0.00 0.00 0.00 50 1015.7
20260508170010 17 196 9.7 22.5 0.00 0.00 0.00 50 1015.5
20260508164529 17 176 6.4 24.1 0.00 0.00 0.00 50 1015.4
20260508163026 16 187 11.3 27.4 0.00 0.00 0.00 50 1015.2
20260508161531 16 135 9.7 22.5 0.00 0.00 0.00 51 1015.3
20260508160004 16 140 11.3 22.5 0.00 0.00 0.00 51 1015.0
20260508154503 15 171 11.3 25.7 0.00 0.00 0.00 52 1015.0
20260508153003 15 176 12.9 22.5 0.00 0.00 0.00 51 1014.8
20260508150018 14 184 9.7 24.1 0.00 0.00 0.00 53 1014.7
20260508143018 13 213 14.5 27.4 0.00 0.00 0.00 53 1014.2
20260508141502 13 214 12.9 27.4 0.00 0.00 0.00 53 1014.2
20260508134503 13 161 12.9 27.4 0.00 0.00 0.00 53 1013.9
20260508133011 13 220 11.3 33.8 0.00 0.00 0.00 53 1013.7
20260508130005 13 167 12.9 29.0 0.00 0.00 0.00 49 1013.6
20260508124512 13 197 12.9 25.7 0.00 0.00 0.00 49 1013.6
20260508123007 13 173 11.3 29.0 0.00 0.00 0.00 49 1013.6
20260508121516 12 232 12.9 24.1 0.00 0.00 0.00 50 1013.4
20260508120023 12 174 11.3 25.7 0.00 0.00 0.00 53 1013.6
20260508114521 12 155 12.9 27.4 0.00 0.00 0.00 47 1013.4
20260508111515 13 209 11.3 32.2 0.00 0.00 0.00 47 1013.3
20260508110006 13 168 11.3 30.6 0.00 0.00 0.00 46 1013.3
20260508103008 13 202 11.3 24.1 0.00 0.00 0.00 43 1013.2
20260508101516 13 234 11.3 24.1 0.00 0.00 0.00 42 1013.1
20260508100033 13 173 9.7 29.0 0.00 0.00 0.00 41 1013.0
20260508094519 13 226 12.9 25.7 0.00 0.00 0.00 40 1013.0
20260508093015 13 208 11.3 30.6 0.00 0.00 0.00 39 1013.0
20260508091510 13 223 9.7 20.9 0.00 0.00 0.00 35 1013.1
20260508090018 14 105 9.7 22.5 0.00 0.00 0.00 32 1013.1
20260508084519 14 183 9.7 20.9 0.00 0.00 0.00 30 1013.1
20260508083030 15 139 6.4 20.9 0.00 0.00 0.00 29 1013.4
20260508081519 15 171 6.4 25.7 0.00 0.00 0.00 27 1013.5
20260508080019 15 128 1.6 12.9 0.00 0.00 0.00 26 1013.5
20260508074519 15 294 1.6 6.4 0.00 0.00 0.00 25 1013.5
20260508073022 16 302 0.0 6.4 0.00 0.00 0.00 26 1013.3
20260508071524 17 317 0.0 22.5 0.00 0.00 0.00 23 1013.0
20260508070003 17 168 11.3 24.1 0.00 0.00 0.00 23 1012.5
20260508064511 17 123 11.3 20.9 0.00 0.00 0.00 24 1012.5
20260508063004 17 145 9.7 20.9 0.00 0.00 0.00 24 1012.5
20260508061505 17 155 6.4 25.7 0.00 0.00 0.00 25 1012.6
20260508060004 18 65 6.4 17.7 0.00 0.00 0.00 26 1012.8
20260508054505 18 198 9.7 19.3 0.00 0.00 0.00 26 1012.8
20260508053003 18 211 9.7 25.7 0.00 0.00 0.00 27 1012.8
20260508051509 18 155 4.8 19.3 0.00 0.00 0.00 30 1012.8
20260508050004 19 144 6.4 17.7 0.00 0.00 0.00 30 1012.8
20260508044504 19 132 4.8 16.1 0.00 0.00 0.00 31 1012.8
20260508043004 18 187 6.4 16.1 0.00 0.00 0.00 37 1012.8
20260508041505 19 129 0.0 6.4 0.00 0.00 0.00 38 1012.9